cover

Tritonal, Meredith Call - Broken Down (Ronski Speed Remix)

Get it on iTunes StoreListen on Apple Music

Trackname / Key / BPM / Publish dateArtists, Remixers / Label
134 bpm, 1A / Ab minor, 2012-03-06, Trance,  0  30

Tracks in release Tranceform: The Ultimate 30

#Trackname / Key / BPM / Publish dateArtists, Remixers / Label
1 134 bpm, 1A / Ab minor, 2012-03-06, Trance,  0  30
2 130 bpm, 6A / G minor, 2012-03-06, Trance,  1  30
3 130 bpm, 5B / Eb major, 2012-03-06, Trance,  0  30
4 132 bpm, 7B / F major, 2012-03-06, Trance,  0  30
5 134 bpm, 10A / B minor, 2012-03-06, Trance,  0  30
6 93 bpm, 3A / Bb minor, 2012-03-06, Trance,  0  30
7 136 bpm, 2A / Eb minor, 2012-03-06, Trance,  0  30
8 128 bpm, 5A / C minor, 2012-03-06, Trance,  1  30
9 138 bpm, 9A / E minor, 2012-03-06, Trance,  0  30
10 138 bpm, 9A / E minor, 2012-03-06, Trance,  0  30
11 128 bpm, 7B / F major, 2012-03-06, Progressive House,  0  30
12 132 bpm, 4A / F minor, 2012-03-06, Trance,  1  30
13 132 bpm, 7A / D minor, 2012-03-06, Trance,  0  30
14 134 bpm, 2A / Eb minor, 2012-03-06, Trance,  0  30
15 132 bpm, 3A / Bb minor, 2012-03-06, Trance,  0  30
16 129 bpm, 7B / F major, 2012-03-06, Trance,  0  30
17 140 bpm, 7A / D minor, 2012-03-06, Trance,  0  30
18 137 bpm, 2A / Eb minor, 2012-03-06, Trance,  0  30
19 131 bpm, 9A / E minor, 2012-03-06, Trance,  0  30
20 130 bpm, 4A / F minor, 2012-03-06, Trance,  0  30
21 135 bpm, 2A / Eb minor, 2012-03-06, Trance,  0  30
22 134 bpm, 8A / A minor, 2012-03-06, Trance,  0  30
23 130 bpm, 2A / Eb minor, 2012-03-06, Trance,  0  30
24 128 bpm, 12B / E major, 2012-03-06, Trance,  0  30
25 140 bpm, 6B / Bb major, 2012-03-06, Trance,  1  30
26 128 bpm, 7B / F major, 2012-03-06, Trance,  0  30
27 138 bpm, 5A / C minor, 2012-03-06, Trance,  0  30
28 134 bpm, 3A / Bb minor, 2012-03-06, Trance,  0  30
29 140 bpm, 8A / A minor, 2012-03-06, Trance,  0  30
30 130 bpm, 7B / F major, 2012-03-06, Trance,  0  30
×

Sign in

Sign in to access your personalized pages, follow artists and labels you love, and create playlists fromyour favorite tracks.

Please wait...